Location: Bagnara
(41.0500°N, 14.7833°E)
Time: 14:53:39
(UTC+00:00)

FALCON 9 DEB - Pass Details

Date: 28 October 2021
Orbit: 344 x 354 km, 53.0° (Epoch: 29 November)

Event Time Altitude Azimuth Distance (km) Brightness Sun altitude
Rises 16:51:26 0° 238° (WSW) 2,156 8.1 -10.0°
Reaches altitude 10° 16:53:27 10° 242° (WSW) 1,321 6.9 -10.4°
Maximum altitude 16:56:21 60° 323° (NW) 413 3.1 -10.9°
Enters shadow 16:58:49 14° 44° (NE) 1,137 4.8 -11.4°
